Temperature
8 9 9 8 9 9 8 7 7 9 10 10 10 10 10 10 10 9 9 8 8 8 7 7 7 7 7 7 6 6 6 6 6 5 5 5 5 4 4 4 4 3 3 3
7 8 8 8 8 8 8 8 8 8 9 10 10 10 10 10 9 9 8 8 8 7 7 7 7 6 6 6 6 6 5 5 5 5 5 5 4 4 4 4 3 3 3 3
6 8 7 6 8 8 8 8 8 8 9 10 9 9 9 9 9 8 8 8 7 7 6 6 6 6 6 6 6 5 5 5 5 5 4 4 4 4 3 3 3 3 2 2
5 6 6 9 10 10 9 9 9 9 9 9 9 9 9 9 8 8 7 7 7 6 6 6 6 6 5 5 5 5 5 4 4 4 4 4 3 3 3 3 2 2 2 2
5 6 7 9 9 9 8 8 9 9 9 9 9 8 8 8 8 7 7 6 6 6 5 5 5 5 5 5 5 4 4 4 4 4 4 3 3 3 3 2 2 2 2 2
5 6 7 9 8 8 8 7 9 9 8 8 7 5 6 7 7 6 6 6 5 5 5 5 5 5 4 4 4 4 4 4 4 3 3 3 3 3 2 2 2 2 1 1
4 5 7 9 8 7 7 7 8 8 8 7 7 6 7 6 6 6 5 5 5 5 5 5 4 4 4 4 4 4 3 3 3 3 3 3 2 2 2 1 1 1 1 1
5 5 6 8 7 7 7 8 8 7 7 7 6 6 6 5 5 5 5 5 4 4 4 4 4 4 4 4 4 3 3 3 3 3 2 2 2 2 1 1 1 0 0 0
6 7 8 8 8 8 8 7 7 6 6 6 5 5 5 5 4 4 4 4 4 4 4 4 4 3 3 3 3 3 3 3 2 2 2 2 1 1 1 0 0 0 -0 -0
6 7 9 9 8 8 7 7 6 6 5 5 5 4 4 4 4 4 4 4 4 4 4 4 3 3 3 3 3 2 2 2 2 2 2 1 1 1 0 0 0 -0 -1 -1
5 6 8 8 8 7 6 6 5 5 5 4 4 4 4 4 4 3 3 3 3 3 3 3 3 3 3 3 2 2 2 2 2 1 1 1 1 0 0 -0 -0 -1 -1 -2
5 6 6 6 6 6 5 5 5 4 4 4 3 3 3 3 3 3 3 3 3 3 3 3 3 3 3 2 2 1 1 1 1 1 1 1 0 0 -0 -1 -1 -2 -2 -2
6 6 6 5 5 4 4 4 4 4 4 3 3 3 3 3 3 3 3 3 2 2 2 2 2 2 2 2 1 1 1 1 1 0 0 0 -0 -0 -1 -1 -1 -2 -2 -3
5 5 4 4 4 4 3 3 3 3 3 3 3 3 3 3 3 3 3 2 2 2 2 2 2 2 2 1 1 1 1 0 -0 -0 -0 -0 -1 -1 -1 -2 -2 -2 -2 -3
4 4 3 3 3 3 2 2 2 2 2 2 2 2 2 2 2 2 2 2 2 2 2 2 2 2 1 1 1 0 0 -0 -0 -1 -1 -1 -1 -2 -2 -2 -2 -2 -3 -3
3 3 2 2 2 2 2 2 2 2 2 2 2 2 2 2 2 2 2 2 1 1 1 1 1 1 1 1 0 0 -0 -0 -1 -1 -1 -2 -2 -2 -2 -3 -3 -3 -3 -3
2 2 2 2 2 1 1 1 1 1 1 1 1 1 1 1 2 2 2 1 1 1 1 1 1 1 1 0 -0 -0 -1 -1 -1 -1 -2 -2 -2 -3 -3 -3 -3 -3 -4 -4
2 2 2 1 1 1 1 1 1 1 1 1 1 1 1 1 1 1 1 1 1 1 1 1 1 0 0 -0 -1 -1 -1 -1 -2 -2 -2 -3 -3 -3 -3 -4 -4 -4 -4 -4
2 1 1 1 1 1 1 1 1 1 1 1 1 1 1 1 1 1 1 0 0 1 1 0 -0 -0 -1 -1 -1 -1 -2 -2 -2 -2 -3 -3 -4 -4 -4 -4 -4 -4 -5 -5
1 1 1 1 1 1 1 1 1 1 1 1 0 0 0 1 0 0 0 0 0 0 0 -0 -1 -1 -1 -1 -2 -2 -2 -2 -3 -3 -3 -4 -4 -4 -4 -4 -5 -5 -5 -5
1 1 1 1 1 1 1 1 0 0 0 0 -0 -0 0 0 0 -0 -0 -0 1 0 -0 -1 -1 -1 -1 -2 -2 -2 -2 -3 -3 -3 -4 -4 -4 -4 -4 -5 -5 -5 -5 -6
1 1 1 1 0 0 0 0 -0 -0 -0 -0 -0 -0 -0 -0 -0 -0 -0 -0 -0 -0 -1 -1 -1 -2 -2 -2 -2 -2 -3 -3 -3 -4 -4 -4 -4 -5 -5 -5 -5 -5 -6 -6
0 0 0 0 0 -0 -0 -0 -0 -0 -0 -0 -1 -1 -1 -1 -1 -1 -1 -0 -1 -1 -1 -1 -2 -2 -2 -2 -3 -3 -3 -3 -3 -4 -4 -4 -5 -5 -5 -5 -5 -6 -6 -6
0 -0 -0 -0 -0 -1 -1 -0 -0 -0 -1 -1 -1 -1 -1 -1 -1 -1 -1 -1 -1 -2 -2 -2 -2 -2 -2 -3 -3 -3 -3 -3 -4 -4 -4 -5 -5 -5 -5 -5 -6 -6 -6 -6
-0 -0 -0 -1 -1 -1 -1 -1 -1 -1 -1 -1 -1 -1 -1 -1 -2 -1 -1 -2 -2 -2 -2 -2 -2 -2 -3 -3 -3 -3 -3 -4 -4 -4 -5 -5 -5 -5 -5 -6 -6 -6 -6 -7
-1 -1 -1 -1 -1 -1 -1 -1 -2 -1 -1 -1 -1 -1 -1 -2 -2 -2 -2 -2 -2 -2 -2 -2 -2 -2 -3 -3 -3 -3 -3 -4 -4 -4 -5 -5 -5 -6 -6 -6 -6 -6 -6 -7
-1 -1 -1 -1 -1 -1 -1 -2 -2 -2 -2 -2 -2 -2 -2 -2 -2 -2 -2 -2 -2 -2 -2 -2 -2 -3 -3 -3 -3 -4 -4 -4 -4 -5 -5 -5 -6 -6 -6 -6 -6 -7 -7 -7
Wind_Speed
8 9 7 8 9 9 11 10 7 7 6 6 4 4 3 2 3 3 4 3 3 3 3 4 4 4 4 4 4 4 5 6 7 6 6 5 5 5 5 5 6 5 4 4
6 8 8 10 12 12 12 13 14 13 13 7 2 1 2 3 4 4 4 3 3 4 5 5 5 5 4 4 4 4 5 6 6 5 5 6 6 5 5 6 5 5 5 5
4 4 6 9 9 11 8 8 8 11 8 4 3 3 4 4 5 5 4 4 4 5 5 6 6 5 5 4 3 4 5 5 5 5 6 6 6 6 6 6 6 6 6 6
4 5 6 5 1 1 5 7 8 7 5 4 3 4 5 5 3 3 4 5 6 5 6 6 5 5 5 4 4 5 5 6 6 6 6 6 6 6 6 5 6 6 6 6
3 5 8 4 2 2 2 4 4 4 4 2 4 5 4 2 4 4 5 5 6 6 6 6 6 5 4 4 5 5 6 6 6 6 6 6 7 7 6 5 6 6 5 6
4 4 6 2 4 3 2 3 1 1 1 1 3 4 4 3 5 6 5 5 5 5 6 6 6 4 4 5 6 6 6 6 6 5 6 7 7 7 5 5 6 5 5 5
7 6 8 1 6 4 2 3 1 1 1 2 3 5 6 7 7 6 6 7 6 6 6 6 5 4 5 6 7 7 6 6 6 6 6 7 6 5 5 5 5 5 6 6
6 7 8 5 6 4 3 0 1 2 3 4 5 6 6 7 7 7 6 6 6 5 6 6 5 4 6 8 7 5 5 6 6 6 6 5 6 5 5 5 5 6 5 5
8 8 2 5 4 2 1 2 2 3 4 5 6 7 7 7 7 7 6 6 5 6 6 6 5 5 7 8 6 5 5 6 6 6 6 5 6 6 5 5 5 5 5 6
6 7 5 4 4 3 2 3 4 4 5 5 7 8 8 7 7 6 6 6 5 6 7 7 6 6 7 7 5 5 7 7 6 6 6 5 5 5 5 6 6 6 6 6
8 8 7 6 3 2 3 4 5 5 5 6 7 8 8 7 7 6 6 5 5 6 7 8 8 7 6 6 5 6 7 6 6 6 6 5 5 6 6 6 7 7 6 5
9 5 4 4 3 4 5 5 5 5 6 6 6 7 8 7 6 6 6 6 6 7 7 8 8 8 7 6 6 6 7 7 6 5 5 5 4 4 8 9 11 11 10 8
6 4 4 5 4 3 4 5 5 5 6 7 6 6 7 7 6 6 7 7 8 8 8 8 9 9 8 6 6 7 8 7 5 5 5 5 5 5 5 5 9 11 11 11
4 4 6 5 4 3 4 5 5 6 6 6 6 6 6 7 7 8 8 8 8 8 9 9 9 10 8 6 6 7 7 8 7 6 6 6 6 5 5 5 5 5 8 11
5 4 4 3 4 4 4 4 5 6 6 6 6 6 7 7 8 9 9 8 8 8 9 9 9 10 7 6 6 7 6 6 6 5 5 5 5 5 5 6 6 5 4 6
3 3 4 5 6 5 5 5 5 6 6 7 7 7 7 8 9 9 9 8 8 9 9 9 10 10 7 6 6 6 6 9 8 5 5 5 5 5 6 6 6 6 6 5
4 4 5 5 5 5 5 5 6 7 7 8 8 8 8 8 9 10 10 8 8 9 10 10 11 9 7 6 6 5 5 6 9 6 6 6 6 6 6 6 6 6 6 6
4 4 4 4 5 5 6 6 7 7 8 8 8 8 8 9 10 11 11 9 9 10 10 10 9 8 7 7 6 5 5 5 5 6 6 6 6 6 6 6 7 7 5 6
3 4 5 5 6 6 7 8 8 8 9 8 8 9 10 10 11 11 10 10 10 13 11 8 9 8 7 7 7 5 5 6 6 6 6 8 8 6 6 6 7 6 6 5
3 4 5 6 7 7 8 8 8 9 9 9 9 10 11 11 10 10 10 11 11 10 9 9 8 7 7 7 8 5 6 6 7 6 6 6 6 6 6 7 7 6 6 6
5 6 7 8 8 9 9 9 9 10 10 9 10 11 12 12 11 9 9 12 12 9 9 11 8 7 6 7 7 5 6 6 7 7 7 7 7 7 7 7 7 6 6 6
6 7 8 9 9 10 9 9 9 10 11 11 11 11 11 12 11 10 11 11 12 12 8 7 6 8 9 9 5 6 6 7 7 7 7 7 7 7 7 7 6 6 6 6
7 8 9 9 10 10 11 10 10 10 11 12 12 12 12 11 9 9 12 9 7 10 8 7 10 13 13 8 6 6 7 8 8 7 7 7 7 7 6 7 6 6 6 6
9 9 10 9 9 10 12 13 11 10 11 11 12 12 11 10 10 9 9 12 13 13 9 10 14 15 13 7 6 7 7 8 7 7 7 6 6 6 6 6 6 5 6 6
10 10 10 10 10 10 12 12 10 10 10 10 11 11 9 8 10 10 8 9 12 12 9 11 15 14 9 6 7 7 7 7 7 6 6 6 6 6 6 6 6 5 5 6
10 10 10 10 10 10 9 8 8 9 8 9 10 8 7 7 8 9 8 9 11 12 10 8 8 9 6 7 7 7 7 7 7 7 6 6 6 6 6 6 7 6 5 5
9 9 8 9 9 9 8 9 9 10 9 9 11 9 8 7 7 8 9 8 8 8 7 7 7 6 6 6 7 7 6 6 6 6 6 6 5 5 6 6 5 5 5 5
Wind_Direction
283 286 274 260 253 231 221 223 235 255 270 282 317 337 342 346 338 326 313 310 314 308 301 297 293 284 268 254 237 224 226 233 236 234 232 229 223 221 220 220 221 220 225 231
285 258 256 263 252 243 241 238 247 267 280 287 312 329 328 336 323 307 298 303 317 318 309 301 293 286 279 267 250 230 232 240 241 235 233 228 224 221 220 222 221 219 224 226
282 310 311 270 243 221 217 220 228 245 255 297 323 327 319 303 287 286 299 321 317 306 297 295 294 290 281 271 271 253 244 245 241 236 235 232 225 222 222 222 220 223 226 224
285 314 257 240 89 155 215 234 227 243 277 321 327 315 297 291 292 317 330 323 311 300 295 293 293 292 282 275 267 260 253 249 243 235 235 233 227 227 226 222 221 224 228 227
263 278 275 246 177 149 199 266 236 236 268 312 349 326 300 3 18 338 315 304 298 296 294 292 289 285 283 279 270 264 257 252 246 238 235 231 230 230 228 223 226 225 225 224
240 252 258 243 124 93 80 256 81 112 288 323 346 308 281 341 339 319 308 298 294 293 295 290 288 291 287 280 272 264 260 255 248 240 235 232 232 233 228 222 225 222 227 225
234 248 265 216 139 129 182 221 102 40 318 303 274 260 296 321 315 308 302 297 295 292 289 283 284 286 278 274 267 262 261 257 249 242 237 235 232 228 225 221 221 223 228 231
202 223 250 162 144 189 219 108 350 327 317 303 290 291 299 301 298 300 299 297 297 293 288 287 282 276 275 271 269 267 262 258 252 244 240 237 230 228 218 211 218 227 231 239
205 220 221 168 193 202 168 268 289 293 299 298 294 292 294 295 294 293 291 292 294 289 290 288 277 267 272 275 275 274 267 261 256 249 238 231 226 226 223 213 218 226 227 236
267 264 260 241 250 264 276 278 292 298 303 301 292 294 294 293 291 291 291 291 292 292 289 289 283 272 267 275 274 270 267 264 257 249 244 234 226 220 219 218 219 222 226 233
260 273 280 257 254 302 327 319 310 307 300 292 290 292 291 291 288 287 289 287 286 282 282 285 287 281 276 274 268 267 267 265 260 249 243 238 231 225 224 223 218 221 224 223
247 256 265 288 330 339 313 299 299 302 298 291 284 286 291 290 286 286 287 288 286 281 280 284 287 285 279 272 262 262 267 263 257 250 243 236 237 251 238 232 237 236 234 234
258 286 290 295 306 309 293 293 294 286 282 286 286 282 286 287 286 285 284 283 281 281 282 284 284 282 278 268 260 256 256 259 257 249 243 236 229 231 250 251 242 242 241 242
270 284 280 278 286 300 295 292 288 281 275 274 279 282 283 283 285 283 279 278 280 281 282 281 280 279 277 268 263 259 256 255 254 248 239 235 232 230 229 235 244 245 239 241
247 244 263 294 300 296 288 283 283 282 283 284 282 279 280 282 283 282 283 285 284 280 278 279 281 282 281 270 264 262 261 256 250 247 240 236 233 230 229 232 236 238 232 236
234 244 264 274 276 281 282 278 277 282 287 287 285 280 279 279 279 281 281 278 277 279 280 281 280 279 277 267 261 261 259 257 254 249 243 240 234 232 233 232 233 233 231 225
226 243 248 259 267 277 279 274 272 278 282 283 284 287 289 288 286 284 282 277 271 272 273 274 276 277 272 260 254 257 258 259 256 254 245 240 237 236 234 231 232 234 233 225
221 229 229 241 255 270 277 277 274 274 274 276 283 286 284 281 282 284 286 287 285 283 277 269 266 269 266 260 255 252 253 253 248 247 247 244 243 236 233 234 233 235 235 232
220 233 247 254 257 260 266 271 272 273 275 277 276 275 273 273 274 278 282 284 284 286 283 270 268 267 264 259 257 250 249 251 251 249 246 249 251 241 235 235 237 235 230 225
238 247 254 259 260 256 261 267 270 273 272 270 271 273 276 275 273 275 277 277 271 266 270 274 273 266 261 258 255 246 243 246 250 251 247 244 241 240 237 237 237 236 231 226
250 255 261 265 267 265 260 262 264 268 270 266 265 268 271 275 274 272 275 281 279 268 266 269 266 260 256 253 253 246 244 248 250 249 247 245 242 240 237 237 236 234 231 228
257 258 261 263 266 271 268 260 257 261 267 268 266 266 269 275 276 273 264 263 272 274 272 265 262 260 260 259 248 246 249 251 253 251 248 243 241 241 239 235 235 234 230 226
256 258 261 262 264 269 273 269 263 262 263 265 266 266 266 268 268 270 279 273 265 269 269 262 264 266 267 262 249 249 251 251 251 250 248 244 240 239 237 234 233 231 228 224
262 264 263 264 266 270 273 273 267 262 259 262 263 260 260 268 273 261 256 268 272 274 271 267 270 270 270 259 249 247 248 249 249 248 249 246 241 237 234 230 229 228 224 223
260 263 264 265 267 267 268 270 271 268 265 266 265 260 254 248 256 269 266 264 268 274 273 272 273 272 265 252 248 248 248 247 247 246 245 246 242 237 231 226 223 222 223 224
261 263 263 259 258 263 265 265 267 269 267 271 273 268 260 254 251 259 265 265 263 270 270 268 265 264 255 249 248 248 247 251 254 250 245 245 241 234 229 225 222 221 222 222
259 260 263 266 264 257 254 255 258 263 261 262 271 273 266 262 260 262 265 266 266 265 264 262 257 252 251 249 249 247 245 243 242 244 244 241 236 232 227 222 220 218 216 216
Height
1519 1515 1515 1515 1514 1514 1516 1516 1516 1505 1501 1498 1498 1497 1497 1497 1497 1497 1496 1496 1495 1494 1492 1491 1489 1488 1486 1484 1483 1481 1480 1478 1477 1476 1475 1474 1474 1473 1473 1472 1472 1471 1470 1469
1520 1512 1511 1511 1508 1508 1508 1507 1506 1503 1501 1496 1496 1495 1495 1495 1495 1495 1494 1493 1492 1491 1489 1488 1486 1484 1482 1480 1478 1477 1475 1474 1472 1471 1470 1469 1469 1468 1468 1467 1467 1466 1466 1465
1522 1511 1511 1510 1497 1499 1501 1498 1499 1501 1497 1494 1494 1494 1494 1493 1493 1492 1491 1490 1489 1487 1486 1484 1482 1480 1478 1476 1474 1472 1470 1469 1467 1466 1465 1465 1464 1463 1462 1462 1461 1461 1460 1460
1523 1518 1518 1496 1489 1489 1492 1492 1492 1492 1492 1492 1493 1492 1492 1491 1490 1489 1489 1487 1485 1483 1481 1479 1477 1475 1473 1471 1469 1467 1466 1464 1463 1461 1460 1459 1459 1458 1457 1456 1456 1455 1455 1454
1523 1519 1506 1492 1490 1490 1492 1492 1488 1489 1490 1491 1491 1490 1489 1489 1488 1487 1486 1484 1482 1480 1477 1475 1473 1470 1468 1466 1465 1463 1461 1459 1458 1456 1455 1454 1453 1452 1452 1451 1450 1450 1449 1449
1520 1518 1508 1491 1490 1489 1492 1493 1488 1488 1489 1489 1490 1492 1489 1486 1485 1483 1481 1479 1477 1475 1473 1470 1468 1466 1464 1461 1460 1458 1456 1454 1453 1451 1450 1448 1447 1447 1446 1445 1445 1444 1444 1444
1520 1515 1500 1489 1489 1490 1496 1492 1488 1487 1487 1488 1488 1488 1486 1483 1481 1479 1477 1475 1473 1470 1468 1466 1464 1462 1459 1457 1455 1453 1451 1449 1448 1446 1444 1443 1442 1441 1440 1440 1439 1438 1438 1438
1513 1513 1502 1487 1488 1490 1488 1486 1486 1486 1486 1485 1484 1483 1481 1479 1476 1474 1472 1470 1468 1466 1464 1462 1460 1457 1454 1452 1450 1448 1446 1444 1442 1440 1439 1438 1436 1435 1434 1434 1433 1433 1432 1432
1498 1494 1485 1484 1483 1484 1484 1484 1483 1483 1482 1481 1479 1478 1476 1474 1472 1470 1468 1466 1464 1462 1459 1457 1455 1453 1450 1448 1445 1443 1440 1438 1436 1435 1433 1432 1431 1430 1429 1428 1427 1427 1426 1426
1489 1482 1481 1481 1481 1481 1481 1481 1480 1479 1478 1477 1475 1473 1472 1470 1468 1466 1464 1462 1460 1457 1455 1452 1451 1448 1446 1443 1441 1438 1435 1433 1431 1429 1427 1426 1425 1424 1423 1422 1421 1421 1420 1420
1485 1481 1479 1478 1478 1478 1478 1477 1476 1475 1474 1473 1471 1469 1467 1465 1463 1461 1459 1457 1455 1453 1450 1448 1446 1443 1441 1438 1435 1432 1430 1427 1425 1423 1422 1420 1419 1418 1417 1417 1417 1416 1415 1415
1480 1477 1476 1475 1475 1474 1474 1473 1472 1471 1469 1468 1467 1465 1463 1461 1459 1457 1455 1453 1451 1448 1446 1443 1440 1438 1435 1433 1430 1427 1424 1422 1420 1418 1416 1414 1413 1412 1411 1411 1411 1410 1410 1409
1472 1472 1472 1471 1471 1470 1469 1468 1468 1466 1465 1463 1462 1461 1459 1457 1455 1453 1450 1448 1446 1443 1441 1438 1435 1432 1430 1427 1424 1421 1419 1416 1414 1412 1410 1409 1407 1406 1405 1405 1405 1404 1404 1403
1468 1468 1467 1467 1467 1466 1465 1464 1463 1462 1461 1460 1458 1457 1455 1452 1450 1448 1446 1443 1441 1438 1435 1432 1429 1426 1424 1421 1418 1416 1413 1410 1408 1406 1405 1403 1402 1400 1399 1399 1398 1397 1398 1398
1463 1464 1463 1462 1462 1462 1461 1460 1459 1458 1457 1455 1454 1452 1450 1448 1445 1443 1441 1438 1435 1432 1430 1427 1424 1421 1418 1415 1412 1409 1407 1404 1402 1400 1399 1397 1396 1395 1394 1393 1392 1392 1392 1392
1459 1459 1459 1459 1458 1457 1456 1455 1454 1453 1452 1451 1449 1447 1445 1443 1440 1438 1435 1433 1430 1427 1424 1421 1418 1415 1412 1409 1406 1403 1400 1398 1396 1394 1392 1391 1390 1389 1388 1387 1387 1386 1386 1386
1454 1454 1454 1454 1454 1453 1452 1452 1451 1449 1448 1446 1444 1442 1440 1437 1434 1432 1429 1427 1424 1421 1418 1415 1412 1409 1406 1403 1400 1397 1394 1392 1390 1388 1386 1385 1384 1383 1382 1382 1381 1380 1380 1381
1450 1450 1451 1451 1450 1449 1448 1447 1446 1445 1443 1441 1439 1437 1434 1431 1428 1426 1423 1420 1417 1413 1411 1408 1405 1402 1399 1397 1394 1391 1388 1386 1384 1382 1381 1379 1378 1377 1377 1376 1375 1375 1375 1375
1446 1447 1447 1447 1446 1445 1444 1442 1441 1440 1438 1436 1433 1431 1428 1425 1422 1419 1416 1413 1409 1406 1403 1401 1398 1395 1392 1390 1387 1385 1382 1380 1378 1376 1375 1374 1373 1371 1371 1370 1369 1369 1369 1369
1443 1443 1443 1442 1442 1440 1439 1437 1435 1433 1431 1430 1427 1424 1421 1418 1416 1413 1409 1406 1403 1400 1396 1394 1391 1388 1385 1383 1381 1378 1376 1374 1372 1370 1369 1368 1367 1366 1365 1364 1364 1363 1363 1363
1440 1440 1439 1438 1436 1435 1433 1431 1429 1426 1424 1422 1420 1417 1414 1411 1408 1405 1402 1397 1394 1393 1390 1387 1384 1381 1379 1376 1374 1372 1370 1368 1366 1364 1363 1362 1361 1360 1359 1358 1358 1358 1357 1357
1436 1435 1433 1432 1430 1428 1426 1424 1422 1419 1417 1415 1412 1409 1406 1403 1400 1397 1394 1391 1388 1385 1382 1379 1377 1374 1372 1370 1367 1365 1363 1362 1360 1358 1357 1355 1355 1354 1353 1352 1352 1352 1352 1352
1430 1429 1427 1425 1423 1420 1418 1416 1414 1412 1409 1406 1404 1401 1399 1396 1393 1390 1385 1383 1381 1378 1375 1372 1370 1368 1365 1363 1361 1359 1357 1355 1353 1352 1350 1349 1349 1348 1347 1347 1346 1346 1346 1346
1423 1422 1420 1418 1415 1413 1410 1407 1405 1403 1401 1398 1396 1393 1391 1388 1384 1382 1379 1376 1373 1371 1368 1365 1363 1361 1358 1356 1355 1353 1350 1349 1347 1346 1344 1343 1343 1342 1341 1341 1341 1341 1341 1341
1415 1413 1411 1409 1407 1404 1401 1399 1396 1394 1392 1389 1387 1385 1383 1380 1377 1374 1371 1368 1366 1363 1360 1358 1356 1354 1352 1350 1348 1346 1344 1343 1341 1340 1338 1338 1337 1336 1336 1336 1336 1336 1336 1336
1407 1405 1403 1400 1398 1396 1393 1391 1388 1386 1384 1381 1378 1376 1374 1372 1369 1366 1364 1361 1358 1356 1353 1351 1349 1347 1345 1343 1342 1340 1338 1337 1335 1334 1333 1332 1331 1331 1331 1330 1330 1331 1331 1331
1398 1396 1394 1391 1389 1387 1385 1383 1380 1378 1376 1373 1370 1368 1366 1363 1361 1358 1356 1353 1351 1349 1347 1344 1342 1340 1339 1337 1335 1334 1332 1331 1329 1328 1327 1326 1326 1326 1325 1325 1326 1326 1326 1327